Millington, TN

11:48 AM CST on January 19, 2018 (GMT -0600)
Millington Municipal

Weather History for KNQA - October, 2012

Change the Weather History Date:

Sunday, October 14, 2012

  Actual Average Record
Temperature  
Mean Temperature 70 °F -  
Max Temperature 75 °F 72 °F 87 °F (2015)
Min Temperature 62 °F 51 °F 37 °F (2006)
Cooling Degree Days 4    
Growing Degree Days 20 (Base 50)    
Moisture  
Dew Point 63 °F    
Average Humidity 79    
Maximum Humidity 94    
Minimum Humidity 65    
Precipitation  
Precipitation 0.00 in - - ()
Sea Level Pressure  
Sea Level Pressure 29.94 in    
Wind  
Wind Speed 11 mph (SSW)    
Max Wind Speed 18 mph    
Max Gust Speed 30 mph    
Visibility 10 miles    
Events Rain    
Averages and records for this station are not official NWS values.
T = Trace of Precipitation, MM = Missing Value Source: NWS Daily Summary

Daily Weather History Graph

Daily Weather History Graph

Search for Another Location

Airport or City:

Trip Planner

Search our weather history database for the weather conditions in past years. The results will help you decide how hot, cold, wet, or windy it might be!

Date:

Astronomy

Oct. 14, 2012 Rise Set
Actual Time 7:05 AM CDT 6:24 PM CDT
Civil Twilight 6:39 AM CDT 6:50 PM CDT
Nautical Twilight 6:10 AM CDT 7:19 PM CDT
Astronomical Twilight 5:40 AM CDT 7:49 PM CDT
Moon 6:05 AM CDT (10/14) 5:45 PM CDT (10/14)
Length of Visible Light 12h 10m
Length of Day
11h 19m
Waning Crescent, 1% of the Moon is Illuminated
Oct 14
Waning Crescent
Oct 15
New
Oct 21
First Quarter
Oct 29
Full
Nov 6
Last Quarter

Hourly Weather History & Observations

Time (CDT) Temp. Dew Point Humidity Pressure Visibility Wind Dir Wind Speed Gust Speed Precip Events Conditions
12:55 AM 73.4 °F 64.4 °F 73% 29.95 in 10.0 mi SSE 12.7 mph - N/A   Clear
1:55 AM 73.4 °F 64.4 °F 73% 29.94 in 10.0 mi SSE 13.8 mph - N/A   Clear
2:35 AM 73.4 °F 64.4 °F 73% 29.95 in 10.0 mi South 9.2 mph - N/A   Clear
2:55 AM 73.4 °F 66.2 °F 78% 29.96 in 10.0 mi South 10.4 mph - N/A   Partly Cloudy
3:15 AM 73.4 °F 66.2 °F 78% 29.95 in 10.0 mi South 10.4 mph - N/A   Scattered Clouds
3:35 AM 73.4 °F 66.2 °F 78% 29.95 in 10.0 mi South 9.2 mph - N/A   Mostly Cloudy
3:55 AM 73.4 °F 66.2 °F 78% 29.94 in 10.0 mi South 12.7 mph - N/A   Overcast
4:55 AM 73.4 °F 66.2 °F 78% 29.97 in 10.0 mi South 10.4 mph - N/A   Overcast
5:55 AM 64.4 °F 62.6 °F 94% 29.98 in 10.0 mi South 5.8 mph - N/A Rain Rain
6:55 AM 64.4 °F 62.6 °F 94% 29.97 in 9.0 mi SSE 10.4 mph - N/A Rain Rain
7:55 AM 64.4 °F 62.6 °F 94% 29.98 in 6.0 mi SSE 11.5 mph - N/A Rain Rain
8:55 AM 66.2 °F 62.6 °F 88% 29.92 in 10.0 mi SSE 12.7 mph - N/A   Overcast
9:55 AM 66.2 °F 64.4 °F 94% 29.96 in 10.0 mi SSW 10.4 mph - N/A   Mostly Cloudy
10:55 AM 69.8 °F 62.6 °F 78% 29.96 in 10.0 mi SSW 13.8 mph - N/A   Mostly Cloudy
11:55 AM 71.6 °F 64.4 °F 78% 29.93 in 10.0 mi South 12.7 mph - N/A   Mostly Cloudy
12:55 PM 73.4 °F 64.4 °F 73% 29.93 in 10.0 mi SSW 15.0 mph - N/A   Overcast
1:55 PM 73.4 °F 66.2 °F 78% 29.91 in 10.0 mi SSW 10.4 mph - N/A   Overcast
2:55 PM 75.2 °F 66.2 °F 73% 29.89 in 10.0 mi SW 18.4 mph 29.9 mph N/A   Overcast
3:55 PM 75.2 °F 66.2 °F 73% 29.89 in 10.0 mi SSW 12.7 mph - N/A   Mostly Cloudy
4:55 PM 75.2 °F 66.2 °F 73% 29.90 in 10.0 mi SW 13.8 mph - N/A   Mostly Cloudy
5:55 PM 75.2 °F 62.6 °F 65% 29.92 in 10.0 mi West 10.4 mph - N/A   Scattered Clouds
6:55 PM 71.6 °F 60.8 °F 69% 29.93 in 10.0 mi SW 4.6 mph - N/A   Scattered Clouds
7:55 PM 68.0 °F 60.8 °F 78% 29.94 in 10.0 mi Calm Calm - N/A   Partly Cloudy
8:55 PM 64.4 °F 60.8 °F 88% 29.96 in 10.0 mi Calm Calm - N/A   Partly Cloudy
9:55 PM 64.4 °F 60.8 °F 88% 29.97 in 10.0 mi WNW 3.5 mph - N/A   Clear
10:55 PM 64.4 °F 57.2 °F 77% 29.98 in 10.0 mi NW 3.5 mph - N/A   Clear
11:55 PM 62.6 °F 55.4 °F 77% 29.98 in 10.0 mi WNW 4.6 mph - N/A   Clear